Regional Weather Roundup
Issued by NWS

Home | Current Version | Previous Version | Graphics & Text | Print | Product List | Glossary On
Versions: 1 2 3 4 5 6 7 8 9 10 11 12 13 14 15 16 17 18 19 20 21 22 23 24 25 26 27 28 29 30 31 32 33 34 35 36 37 38 39 40 41 42 43 44 45 46 47 48 49 50
000
ASUS45 KABQ 272310
RWRNM
NEW MEXICO REGIONAL WEATHER ROUNDUP
NATIONAL WEATHER SERVICE ALBUQUERQUE NM
500 PM MDT THU AUG 27 2015

NOTE: "FAIR" MEANS FEW OR NO CLOUDS BELOW 12,000 FEET AGL WITH NO
       SIGNIFICANT WEATHER OR OBSTRUCTIONS TO VISION.

      THIS PRODUCT IS RELEASED AS TWO VERSIONS.  ONE VERSION NEAR
      THE TOP OF THE HOUR CONTAINING PRELIMINARY DATA FROM ALBUQUERQUE
      AND OTHER STATIONS.  A FINAL VERSION WITH ADDITIONAL DATA IS
      ISSUED ABOUT 10 MINUTES AFTER THE HOUR.

NMZ501-503-504-510>518-280000-
NORTHWEST PLATEAU/NORTHCENTRAL MOUNTAINS

CITY           SKY/WX    TMP DP  RH WIND       PRES   REMARKS
FARMINGTON     SUNNY     84  51  31 W13G23    30.18F
LOS ALAMOS     MOSUNNY   74  53  47 CALM      30.30F
SANTA FE       CLOUDY    80  50  34 NW6       30.21F
TAOS           MOSUNNY   79  45  29 W16G23    30.27F
ANGEL FIRE     MOCLDY    70  48  44 SW16      30.36F

$$
NMZ402-403-502-505>509-280000-
WESTCENTRAL MOUNTAINS/SOUTHWEST MOUNTAINS

CITY           SKY/WX    TMP DP  RH WIND       PRES   REMARKS
GALLUP         PTSUNNY   81  52  36 NE8       30.27F
GRANTS         CLOUDY    75  53  45 NW12      30.30S THUNDER
SILVER CITY      N/A     82  48  30 NW16      30.22S

$$
NMZ407-409-411-412-280000-
SOUTHERN DESERTS

CITY           SKY/WX    TMP DP  RH WIND       PRES   REMARKS
DEMING         PTSUNNY   91  52  26 W9        30.10F
LAS CRUCES     MOSUNNY   91  51  25 CALM      30.10F
HOLLOMAN AFB   MOSUNNY   95  50  21 SW6       30.05F
ALAMOGORDO     MOSUNNY   91  48  22 W3        30.08F
T OR C         MOSUNNY   88  45  22 S5        30.12F

$$
NMZ519>523-280000-
CENTRAL VALLEYS/CENTRAL HIGHLANDS

CITY           SKY/WX    TMP DP  RH WIND       PRES   REMARKS
ALBUQUERQUE    PTSUNNY   84  50  30 W12       30.18F
DOUBLE EAGLE   PTSUNNY   82  54  36 W7        30.22F
MORIARTY ARPT  FAIR      80  49  33 W12       30.24S
CLINES CORNERS MOSUNNY   77  51  40 W15       30.27F
BELEN          NOT AVBL
SOCORRO        CLOUDY    87  46  24 NW10      30.14S

$$
NMZ524>526-539-540-280000-
SOUTHCENTRAL MOUNTAINS

CITY           SKY/WX    TMP DP  RH WIND       PRES   REMARKS
RUIDOSO        PTSUNNY   72  54  53 MISG      30.32S

$$
NMZ527>531-280000-
NORTHEAST HIGHLANDS/NORTHEAST PLAINS

CITY           SKY/WX    TMP DP  RH WIND       PRES   REMARKS
LAS VEGAS      MOSUNNY   82  46  28 W10G18    30.23F
RATON          PTSUNNY   86  43  22 W13       30.14F
CLAYTON        PTSUNNY   90  51  26 CALM      30.06F

$$
NMZ532>537-280000-
EASTCENTRAL PLAINS

CITY           SKY/WX    TMP DP  RH WIND       PRES   REMARKS
TUCUMCARI      SUNNY     94  49  21 SW12      30.01F
CANNON AFB     SUNNY     79  57  46 SW22G30   30.11R
CLOVIS AIRPORT PTSUNNY   82  57  42 SW25G31   30.11S

$$
NMZ028-029-538-280000-
SOUTHEAST PLAINS

CITY           SKY/WX    TMP DP  RH WIND       PRES   REMARKS
ROSWELL        CLOUDY    88  55  32 NE6       30.05F
ARTESIA        PTSUNNY   91  55  29 N10       30.05F
CARLSBAD       NOT AVBL
HOBBS          MOSUNNY   93  46  20 SE9G17    30.07


$$



USA.gov is the U.S. government's official web portal to all federal, state and local government web resources and services.